Weather in Pendjikent

Tajikistan     39°29′46″N   67°36′29″E
В апреле 2022 года жителям России запретили посещать сайт meteo.paraplan.net по решению Генеральной прокуратуры. Аудитория сайта уменьшилась в 10 раз. Владельцы сайта не видят смысла в поддержке погодного сервера в таких условиях. Сайт будет закрыт в октябре.
temp.,
°C
wind,
m/s
gust,
m/s
humid.,
%
clouds,
%
prec.,
mm/h
press.,
hPa
HPBL,
m
6 october, thu
thu623:00+9ese22270 0.0 102219
02:00+7se01320 0.0 102110
05:00+7se11340 0.0 102111
08:00+11se01280 0.0 102169
11:00+16nw32210 0.0 1020563
14:00+18nw44180 0.0 1019890
17:00+17nw33190 0.0 1019648
20:00+12ssw22280 0.0 102113
7 october, fri
fri723:00+10se11300 0.0 102111
02:00+10ese22310 0.0 102011
05:00+10ese22320 0.0 102013
08:00+14se22280 0.0 102167
11:00+18nw32190 0.0 10201050
14:00+20nw42170 0.0 10191570
17:00+19wnw43170 0.0 10191490
20:00+14sw22245 0.0 102118
8 october, sat
sat823:00+12s12275 0.0 102111
02:00+11ese22275 0.0 102113
05:00+10se222956 0.0 102110
08:00+14sse112481 0.0 102230
11:00+19nw321611 0.0 1022988
14:00+20nw43130 0.0 10201564
17:00+19nw43130 0.0 10211099
20:00+13sw11170 0.0 102211
9 october, sun
sun923:00+11s11180 0.0 102210
02:00+10ese11210 0.0 102210
05:00+9ese12260 0.0 102212
08:00+13se01220 0.0 102241
11:00+18nw32160 0.0 1021711
14:00+19nw43150 0.0 1020930
17:00+17nw32170 0.0 1020572
20:00+12sse22250 0.0 102129
10 october, mon
mon1023:00+10e22280 0.0 102111
02:00+9se11310 0.0 102110
05:00+8ese11310 0.0 102011
08:00+14se11230 0.0 102026
11:00+19nw32150 0.0 1019766
14:00+20nw43130 0.0 10171199
17:00+19nnw32150 0.0 1017632
20:00+13s11230 0.0 101711